Weather History for CYTZ - September, 2012

Change the Weather History Date:

Saturday, September 8, 2012

  Actual Average Record
Temperature  
Mean Temperature 65 °F -  
Max Temperature 70 °F 65 °F 86 °F (2002)
Min Temperature 60 °F 52 °F 53 °F (1997)
Growing Degree Days 15 (Base 50)    
Moisture  
Dew Point 62 °F    
Average Humidity 85    
Maximum Humidity 94    
Minimum Humidity 49    
Precipitation  
Precipitation 0.28 in 0.09 in - ()
Sea Level Pressure  
Sea Level Pressure 29.55 in    
Wind  
Wind Speed 9 mph ()    
Max Wind Speed 29 mph    
Max Gust Speed 37 mph    
Visibility 7.1 miles    
Events Rain , Thunderstorm    
Averages and records for this station are not official NWS values.
T = Trace of Precipitation, MM = Missing Value Source: Averaged Metar Reports

Daily Weather History Graph

Daily Weather History Graph

Search for Another Location

Airport or City:

Trip Planner

Search our weather history database for the weather conditions in past years. The results will help you decide how hot, cold, wet, or windy it might be!

Date:

Astronomy

Sep. 08, 2012 Rise Set
Actual Time 6:49 AM EDT 7:39 PM EDT
Civil Twilight 6:20 AM EDT 8:08 PM EDT
Nautical Twilight 5:45 AM EDT 8:43 PM EDT
Astronomical Twilight 5:09 AM EDT 9:19 PM EDT
Moon No Moon Rise 2:43 PM EDT (9/8)
Length of Visible Light 13h 48m
Length of Day
12h 50m
Waning Gibbous, 49% of the Moon is Illuminated
Sep 8
Waning Gibbous
Sep 15
New
Sep 22
First Quarter
Sep 29
Full
Oct 8
Last Quarter

Hourly Weather History & Observations

Time (EDT) Temp. Dew Point Humidity Pressure Visibility Wind Dir Wind Speed Gust Speed Precip Events Conditions
12:37 AM 71.6 °F 68.0 °F 88% 29.65 in 9.0 mi West 4.6 mph - N/A Rain Light Rain
12:52 AM 71.6 °F 68.0 °F 88% 29.63 in 9.0 mi West 3.5 mph - N/A   Overcast
1:00 AM 71.6 °F 68.0 °F 88% 29.63 in 9.0 mi WNW 3.5 mph - N/A   Overcast
1:21 AM 71.6 °F 68.0 °F 88% 29.63 in 9.0 mi West 5.8 mph - N/A Rain Light Rain
1:23 AM 71.6 °F 68.0 °F 88% 29.64 in 9.0 mi West 5.8 mph - N/A Rain , Thunderstorm Light Rain
1:38 AM 71.6 °F 68.0 °F 88% 29.65 in 7.0 mi SW 8.1 mph - N/A Rain , Thunderstorm Heavy Rain
1:47 AM 71.6 °F 68.0 °F 88% 29.65 in 7.0 mi SW 6.9 mph - N/A Rain , Thunderstorm Light Thunderstorms and Rain
2:00 AM 71 °F 66 °F 81% 29.65 in 7 mi SSW 8.1 mph - - Thunderstorm Thunderstorm
2:00 AM 71.6 °F 66.2 °F 83% 29.65 in 8.0 mi SSW 9.2 mph - N/A Rain , Thunderstorm Light Thunderstorms and Rain
2:02 AM 71.6 °F 66.2 °F 83% 29.64 in 9.0 mi SW 8.1 mph - N/A Rain , Thunderstorm Light Rain
2:05 AM 69.8 °F 66.2 °F 88% 29.64 in 9.0 mi SW 8.1 mph - N/A Rain Rain
2:28 AM 69.8 °F 66.2 °F 88% 29.63 in 7.0 mi WSW 8.1 mph - N/A Rain , Thunderstorm Rain
2:47 AM 68.0 °F 66.2 °F 94% 29.62 in 7.0 mi SSW 6.9 mph - N/A Rain Rain
3:00 AM 68.0 °F 66.2 °F 94% 29.61 in 7.0 mi South 3.5 mph - N/A Rain Rain
3:03 AM 68.0 °F 66.2 °F 94% 29.60 in 5.0 mi Calm Calm - N/A Rain Rain
3:13 AM 68.0 °F 66.2 °F 94% 29.61 in 7.0 mi SSW 9.2 mph - N/A Rain Rain
4:00 AM 68.0 °F 66.2 °F 94% 29.55 in 8.0 mi SW 9.2 mph - N/A Rain Light Rain
4:45 AM 69.8 °F 66.2 °F 88% 29.54 in 9.0 mi SW 12.7 mph - N/A Rain Light Rain
5:00 AM 69.8 °F 66.2 °F 88% 29.53 in 7.0 mi South 8.1 mph - N/A Rain Rain
5:55 AM 68.0 °F 66.2 °F 94% 29.50 in 6.0 mi South 10.4 mph - N/A Rain Light Rain
6:00 AM 68.0 °F 66.2 °F 94% 29.50 in 6.0 mi South 9.2 mph - N/A Rain Rain
6:05 AM 68.0 °F 66.2 °F 94% 29.50 in 5.0 mi South 11.5 mph - N/A Rain Rain
6:09 AM 68.0 °F 66.2 °F 94% 29.50 in 5.0 mi South 10.4 mph - N/A Rain Heavy Rain
6:12 AM 68.0 °F 66.2 °F 94% 29.50 in 5.0 mi South 10.4 mph - N/A Rain Rain
6:30 AM 68.0 °F 66.2 °F 94% 29.49 in 5.0 mi South 10.4 mph - N/A Rain Heavy Rain
6:41 AM 68.0 °F 66.2 °F 94% 29.48 in 5.0 mi South 6.9 mph - N/A Rain Rain
6:43 AM 68.0 °F 66.2 °F 94% 29.48 in 5.0 mi South 8.1 mph - N/A Rain Heavy Rain
6:44 AM 68.0 °F 64.4 °F 88% 29.48 in 5.0 mi South 8.1 mph - N/A Rain Rain
6:55 AM 68.0 °F 66.2 °F 94% 29.47 in 5.0 mi South 9.2 mph - N/A Rain Heavy Rain
7:00 AM 68.0 °F 64.4 °F 88% 29.47 in 4.0 mi South 11.5 mph - N/A Rain Heavy Rain
7:12 AM 68.0 °F 64.4 °F 88% 29.46 in 4.0 mi South 6.9 mph - N/A Rain Rain
7:18 AM 68.0 °F 66.2 °F 94% 29.46 in 5.0 mi South 9.2 mph - N/A Rain Light Rain
7:24 AM 68.0 °F 64.4 °F 88% 29.45 in 5.0 mi South 8.1 mph - N/A Rain Rain
7:27 AM 68.0 °F 64.4 °F 88% 29.45 in 5.0 mi South 9.2 mph - N/A Rain Heavy Rain
7:28 AM 68.0 °F 64.4 °F 88% 29.45 in 5.0 mi South 9.2 mph - N/A Rain Rain
7:35 AM 68.0 °F 64.4 °F 88% 29.46 in 4.0 mi South 13.8 mph - N/A Rain Heavy Rain
7:38 AM 68.0 °F 64.4 °F 88% 29.45 in 4.0 mi South 12.7 mph - N/A Rain Rain
7:44 AM 66.2 °F 64.4 °F 94% 29.45 in 6.0 mi South 8.1 mph 17.3 mph N/A Rain Light Rain
8:00 AM 67 °F 64 °F 88% 29.45 in 7 mi SSE 6.9 mph - - Rain Rain
8:00 AM 66.2 °F 64.4 °F 94% 29.45 in 7.0 mi SE 5.8 mph - N/A Rain Rain
8:09 AM 64.4 °F 60.8 °F 88% 29.46 in 7.0 mi Variable 12.7 mph 20.7 mph N/A Rain Rain
8:11 AM 64.4 °F 60.8 °F 88% 29.47 in 8.0 mi NNW 13.8 mph 20.7 mph N/A Rain Heavy Rain
8:14 AM 64.4 °F 60.8 °F 88% 29.47 in 4.0 mi NW 12.7 mph 20.7 mph N/A Rain Heavy Rain
8:19 AM 62.6 °F 59.0 °F 88% 29.48 in 3.0 mi NNW 12.7 mph 19.6 mph N/A Rain Heavy Rain
8:20 AM 62.6 °F 59.0 °F 88% 29.48 in 2.2 mi NNW 12.7 mph - N/A Rain Heavy Rain
8:26 AM 62.6 °F 59.0 °F 88% 29.47 in 3.0 mi NW 13.8 mph 20.7 mph N/A Rain Heavy Rain
8:30 AM 62.6 °F 59.0 °F 88% 29.47 in 3.0 mi NW 13.8 mph 23.0 mph N/A Rain Heavy Rain
8:43 AM 62.6 °F 59.0 °F 88% 29.48 in 6.0 mi NW 11.5 mph 28.8 mph N/A Rain Heavy Rain
8:47 AM 60.8 °F 57.2 °F 88% 29.48 in 6.0 mi NW 23.0 mph 33.4 mph N/A Rain Heavy Rain
8:53 AM 60.8 °F 57.2 °F 88% 29.47 in 8.0 mi NNW 17.3 mph 33.4 mph N/A Rain Rain
9:00 AM 60.8 °F 57.2 °F 88% 29.47 in 9.0 mi NNW 16.1 mph 27.6 mph N/A Rain Rain
10:00 AM 60.8 °F 57.2 °F 88% 29.50 in 9.0 mi NW 6.9 mph 19.6 mph N/A Rain Rain
11:00 AM 62.6 °F 59.0 °F 88% 29.51 in 9.0 mi West 10.4 mph - N/A Rain Light Rain
11:10 AM 62.6 °F 59.0 °F 88% 29.54 in 9.0 mi WSW 18.4 mph 24.2 mph N/A Rain Light Rain
11:13 AM 62.6 °F 59.0 °F 88% 29.53 in 9.0 mi West 15.0 mph 24.2 mph N/A   Overcast
11:22 AM 62.6 °F 59.0 °F 88% 29.51 in 9.0 mi WNW 11.5 mph 18.4 mph N/A   Mostly Cloudy
12:00 PM 64.4 °F 59.0 °F 83% 29.53 in 9.0 mi WSW 13.8 mph - N/A   Overcast
12:29 PM 64.4 °F 59.0 °F 83% 29.55 in 9.0 mi WSW 15.0 mph - N/A Rain Light Rain
12:32 PM 62.6 °F 59.0 °F 88% 29.53 in 7.0 mi WSW 12.7 mph 19.6 mph N/A Rain Light Rain
12:33 PM 62.6 °F 59.0 °F 88% 29.52 in 7.0 mi WSW 11.5 mph 19.6 mph N/A Rain Light Rain
12:35 PM 62.6 °F 60.8 °F 94% 29.52 in 6.0 mi WSW 11.5 mph 19.6 mph N/A Rain Light Rain
12:36 PM 62.6 °F 60.8 °F 94% 29.52 in 5.0 mi WSW 11.5 mph 19.6 mph N/A Rain Light Rain
12:39 PM 62.6 °F 60.8 °F 94% 29.52 in 6.0 mi WSW 11.5 mph 18.4 mph N/A Rain Light Rain
12:46 PM 64.4 °F 60.8 °F 88% 29.52 in 9.0 mi West 13.8 mph - N/A Rain Light Rain
12:50 PM 64.4 °F 60.8 °F 88% 29.54 in 9.0 mi WSW 15.0 mph - N/A   Overcast
1:00 PM 64.4 °F 59.0 °F 83% 29.55 in 9.0 mi WSW 20.7 mph 26.5 mph N/A   Overcast
2:00 PM 67 °F 57 °F 62% 29.56 in 10 mi West 18.4 mph - -   Clear
2:00 PM 66.2 °F 57.2 °F 73% 29.56 in 9.0 mi West 16.1 mph 28.8 mph N/A   Mostly Cloudy
2:56 PM 68.0 °F 53.6 °F 60% 29.57 in 9.0 mi West 28.8 mph 35.7 mph N/A   Mostly Cloudy
3:00 PM 68.0 °F 53.6 °F 60% 29.57 in 9.0 mi WNW 24.2 mph 36.8 mph N/A   Mostly Cloudy
4:00 PM 68.0 °F 48.2 °F 49% 29.56 in 9.0 mi NW 19.6 mph 28.8 mph N/A   Clear
5:00 PM 66.2 °F 51.8 °F 60% 29.62 in 9.0 mi NNW 13.8 mph 21.9 mph N/A   Mostly Cloudy
6:00 PM 66.2 °F 51.8 °F 60% 29.67 in 9.0 mi NNW 8.1 mph - N/A   Mostly Cloudy
6:16 PM 66.2 °F 53.6 °F 64% 29.68 in 9.0 mi NW 8.1 mph - N/A Rain Light Rain
7:00 PM 62.6 °F 55.4 °F 77% 29.68 in 9.0 mi Variable 2.3 mph - N/A Rain Light Rain
7:01 PM 62.6 °F 53.6 °F 72% 29.68 in 9.0 mi Variable 2.3 mph - N/A   Mostly Cloudy
8:00 PM 63 °F 54 °F 65% 29.70 in 10 mi West 8.1 mph - -   Clear
8:00 PM 62.6 °F 53.6 °F 72% 29.70 in 9.0 mi West 8.1 mph - N/A   Mostly Cloudy
9:00 PM 64.4 °F 51.8 °F 64% 29.73 in 9.0 mi West 12.7 mph - N/A   Mostly Cloudy
10:00 PM 64.4 °F 51.8 °F 64% 29.77 in 9.0 mi West 12.7 mph - N/A   Overcast